Terminal Aerodrome Forecast
Issued by NWS

Home | Current Version | Previous Version | Text Only | Print | Product List | Glossary On
Versions: 1 2 3 4 5 6 7 8 9 10 11 12 13 14 15 16 17 18
000
FTAK31 PAFA 230146 AAA
TAFAUN
TAF AMD
PAUN 230146Z 2302/2324 07015KT P6SM SCT120 BKN200
     FM230500 09025G35KT 1SM -SN BLSN SCT007 BKN012 OVC025
     FM231000 08032G42KT 1/2SM -SN BLSN FG SCT005 BKN012 OVC025=

USA.gov is the U.S. government's official web portal to all federal, state and local government web resources and services.